Location: De Greiden
(52.9496°N, 5.9137°E)
Time: 23:36:10
(UTC+00:00)

Cosmos 2082 Rocket - Pass Details

Date: 24 January 2021
Orbit: 832 x 855 km, 71.0° (Epoch: 01 March)

Event Time Altitude Azimuth Distance (km) Brightness Sun altitude
Rises 18:33:10 0° 328° (NNW) 3,438 5.8 -21.7°
Reaches altitude 10° 18:35:40 10° 332° (NNW) 2,498 5.0 -22.1°
Maximum altitude 18:41:23 66° 54° (NE) 932 2.1 -23.0°
Enters shadow 18:42:39 51° 110° (ESE) 1,063 2.3 -23.2°
